This is the latest recevied weather packets stored in our database for station/object KR8N. If no packets are shown the sender has not sent any weather packets the latest 10 day(s).
| Time | Temp. | Humidity | Pressure | Rain* | Wind** | Luminosity | Snow |
|---|---|---|---|---|---|---|---|
| 1778080223 | 16.67° C | 86% | 1013.3 hPa | 0 mm | - | 129 W/m² | - |
| 1778079920 | 16.67° C | 85% | 1013.4 hPa | 0 mm | - | 109 W/m² | - |
| 1778079617 | 16.67° C | 87% | 1013.3 hPa | 0 mm | - | 137 W/m² | - |
| 1778079313 | 16.67° C | 86% | 1013.4 hPa | 0 mm | - | 131 W/m² | - |
| 1778079011 | 16.67° C | 87% | 1013.6 hPa | 0 mm | - | 99 W/m² | - |
| 1778078707 | 16.67° C | 86% | 1013.4 hPa | 0 mm | - | 227 W/m² | - |
| 1778078405 | 16.67° C | 85% | 1013.6 hPa | 0 mm | - | 224 W/m² | - |
| 1778078102 | 17.22° C | 86% | 1013.6 hPa | 0 mm | - | 162 W/m² | - |
| 1778077801 | 17.22° C | 84% | 1013.4 hPa | 0 mm | - | 264 W/m² | - |
| 1778077498 | 16.67° C | 86% | 1013.5 hPa | 0 mm | - | 356 W/m² | - |
| 1778077196 | 16.67° C | 85% | 1013.7 hPa | 0 mm | - | 213 W/m² | - |
| 1778076893 | 16.67° C | 86% | 1013.4 hPa | 0 mm | - | 281 W/m² | - |
| 1778076592 | 16.67° C | 86% | 1013.4 hPa | 0 mm | - | 299 W/m² | - |
| 1778076288 | 16.67° C | 87% | 1013.4 hPa | 0 mm | - | 326 W/m² | - |
| 1778075985 | 16.11° C | 88% | 1013.3 hPa | 0 mm | - | 325 W/m² | - |
| 1778075683 | 16.11° C | 88% | 1013.2 hPa | 0 mm | - | 290 W/m² | - |
| 1778075378 | 15.56° C | 90% | 1013 hPa | 0 mm | - | 206 W/m² | - |
| 1778075075 | 15.56° C | 90% | 1012.9 hPa | 0 mm | - | 237 W/m² | - |
| 1778074772 | 15.56° C | 90% | 1012.9 hPa | 0 mm | - | 192 W/m² | - |
| 1778074469 | 15° C | 91% | 1012.9 hPa | 0 mm | - | 216 W/m² | - |
| 1778074166 | 15° C | 91% | 1013 hPa | 0 mm | - | 205 W/m² | - |
| 1778073862 | 15° C | 92% | 1012.8 hPa | 0 mm | - | 170 W/m² | - |
| 1778073560 | 15° C | 92% | 1012.8 hPa | 0 mm | - | 169 W/m² | - |
| 1778073256 | 14.44° C | 92% | 1012.8 hPa | 0 mm | - | 116 W/m² | - |
| 1778072954 | 14.44° C | 92% | 1012.9 hPa | 0 mm | - | 138 W/m² | - |
* Rain latest hour (hover to see other rain measurements)
** Current wind speed in m/s (hover to see current wind gust speed)